Regional Weather Roundup
Issued by NWS Cleveland, OH

Home | Current Version | Previous Version | Text Only | Print | Product List | Glossary Off
Versions: 1 2 3 4 5 6 7 8 9 10 11 12 13 14 15 16 17 18 19 20 21 22 23 24 25 26 27 28 29 30 31 32 33 34 35 36 37 38 39 40 41 42 43 44 45 46 47 48 49 50

000
ASUS41 KCLE 210600
RWRCLE
OHIO REGIONAL WEATHER ROUNDUP
NATIONAL WEATHER SERVICE WILMINGTON, OH
100 AM EST WED FEB 21 2018

NOTE: "FAIR" INDICATES FEW OR NO CLOUDS BELOW 12,000 FEET WITH NO
SIGNIFICANT WEATHER AND/OR OBSTRUCTIONS TO VISIBILITY.

OHZ001>008-015>018-024>027-034-035-043-044-210700-
   NORTHWEST OHIO

CITY           SKY/WX    TMP DP  RH WIND       PRES   REMARKS
DEFIANCE       LGT RAIN  56  54  93 SE3       30.04F
FINDLAY        CLOUDY    62  53  72 W5        30.06S
TOLEDO EXPRESS CLOUDY    55  55 100 CALM      30.06R
TOLEDO EXEC    MOCLDY    55  53  93 S3        30.07S
LIMA           CLOUDY    62  56  80 VRB3      30.07F
$$

OHZ009>014-019>023-028>033-038-089-210700-
   NORTHEAST OHIO

CITY           SKY/WX    TMP DP  RH WIND       PRES   REMARKS
CLE-HOPKINS    MOCLDY    69  54  58 S14G22    30.09F
CLE-LAKEFRONT  FAIR      70  53  54 S21G26    30.06S
CUY CO. ARPT   NOT AVBL
LORAIN-ELYRIA  FAIR      66  51  58 SW8       30.08S
ASHTABULA      FAIR      65  53  65 S13       30.11F
AKRON-CANTON   FAIR      66  51  58 S17       30.14S
WOOSTER        NOT AVBL
MANSFIELD      FAIR      66  55  67 S17G30    30.11F
YOUNGSTOWN     MOCLDY    66  51  58 SW10      30.14F
$$

OHZ042-051>053-060>062-070>072-077>081-210700-
  SOUTHWEST OHIO

CITY           SKY/WX    TMP DP  RH WIND       PRES   REMARKS
CINC-COVINGTON FAIR      68  59  73 S17G28    30.11F
CINC-LUNKEN    FAIR      69  58  67 S14       30.12F
HAMILTON       FAIR      70  58  65 S10G23    30.11S
DAYTON         NOT AVBL
WRIGHT-PAT AFB FAIR      69  57  65 S18G29    30.09F
DAYTON GENERAL FAIR      68  56  65 S17G26    30.10F
WILMINGTON     MOCLDY    66  58  75 S16       30.13F
$$

OHZ036-037-039>041-045>050-054>059-063>069-073>076-082>088-210700-
  CENTRAL AND SOUTHEAST OHIO

CITY           SKY/WX    TMP DP  RH WIND       PRES   REMARKS
COLUMBUS       MOCLDY    67  54  63 S12       30.14S
OSU AIRPORT    CLOUDY    69  56  62 S17G30    30.12S
BOLTON FIELD   CLOUDY    67  55  65 S14G25    30.15R
RICKENBACK AFB NOT AVBL
NEWARK         FAIR      67  52  58 S10       30.14S
MARION         CLOUDY    66  55  67 S21G30    30.10S
LANCASTER      FAIR      68  54  60 S13       30.16S
ZANESVILLE     FAIR      67  52  58 S10       30.17F
NEW PHILLY     FAIR      71  52  50 S12G18    30.16F
$$




USA.gov is the U.S. government's official web portal to all federal, state and local government web resources and services.